Weather History for Windsor, ON

Change the Weather History Date:

Saturday, April 26, 2014

  Actual Average Record
Temperature  
Mean Temperature 47 °F -  
Max Temperature 55 °F 66 °F 71 °F (1999)
Min Temperature 39 °F 46 °F 31 °F (2013)
Degree Days  
Heating Degree Days 18    
Moisture  
Dew Point 37 °F    
Average Humidity 70    
Maximum Humidity 100    
Minimum Humidity 33    
Precipitation  
Precipitation 0.00 in 0.10 in - ()
Sea Level Pressure  
Sea Level Pressure 29.92 in    
Wind  
Wind Speed 9 mph ()    
Max Wind Speed 20 mph    
Max Gust Speed 24 mph    
Visibility 13.0 miles    
Events      
Averages and records for this station are not official NWS values.
T = Trace of Precipitation, MM = Missing Value Source: Averaged Metar Reports

Daily Weather History Graph

Daily Weather History Graph

Search for Another Location

Airport:

Trip Planner

Search our weather history database for the weather conditions in past years. The results will help you decide how hot, cold, wet, or windy it might be!

Date:

Astronomy

Apr. 26, 2014 Rise Set
Actual Time 6:34 AM EDT 8:25 PM EDT
Civil Twilight 6:04 AM EDT 8:55 PM EDT
Nautical Twilight 5:27 AM EDT 9:32 PM EDT
Astronomical Twilight 4:48 AM EDT 10:12 PM EDT
Moon 5:01 AM EDT (4/26) 5:50 PM EDT (4/26)
Length of Visible Light 14h 51m
Length of Day
13h 51m
Waning Crescent, 8% of the Moon is Illuminated
Apr 26
Waning Crescent
Apr 29
New
May 6
First Quarter
May 14
Full
May 21
Last Quarter

Hourly Weather History & Observations

Time (EDT) Temp. Windchill Dew Point Humidity Pressure Visibility Wind Dir Wind Speed Gust Speed Precip Events Conditions
12:00 AM 44.6 °F 43.1 °F 42.8 °F 93% 29.84 in 8.0 mi SSW 3.5 mph - N/A   Clear
1:00 AM 44.6 °F 40.7 °F 42.8 °F 93% 29.83 in 10.0 mi SSW 6.9 mph - N/A   Partly Cloudy
2:00 AM 45 °F - 43 °F 90% 29.81 in 10 mi SSW 8.1 mph - -   Scattered Clouds
2:00 AM 44.6 °F 40.7 °F 42.8 °F 93% 29.81 in 10.0 mi SSW 6.9 mph - N/A   Partly Cloudy
3:00 AM 44.6 °F - 42.8 °F 93% 29.79 in 8.0 mi SSW 2.3 mph - N/A   Partly Cloudy
4:00 AM 42.8 °F 40.1 °F 42.8 °F 100% 29.78 in 8.0 mi WSW 4.6 mph - N/A   Partly Cloudy
5:00 AM 44.6 °F 40.2 °F 41.0 °F 87% 29.78 in 8.0 mi West 8.1 mph - N/A   Clear
6:00 AM 44.6 °F 40.2 °F 39.2 °F 81% 29.80 in 8.0 mi West 8.1 mph - N/A   Partly Cloudy
7:00 AM 44.6 °F 40.2 °F 39.2 °F 81% 29.82 in 8.0 mi WNW 8.1 mph - N/A   Partly Cloudy
8:00 AM 47 °F - 40 °F 69% 29.84 in 15 mi WNW 6.9 mph - -   Scattered Clouds
8:00 AM 46.4 °F 42.4 °F 39.2 °F 76% 29.84 in 15.0 mi WNW 8.1 mph - N/A   Partly Cloudy
9:00 AM 48.2 °F - 35.6 °F 62% 29.85 in 15.0 mi NW 12.7 mph 23.0 mph N/A   Partly Cloudy
10:00 AM 50.0 °F - 33.8 °F 54% 29.87 in 15.0 mi NNW 18.4 mph - N/A   Partly Cloudy
11:00 AM 51.8 °F - 33.8 °F 50% 29.89 in 15.0 mi NW 17.3 mph - N/A   Partly Cloudy
12:00 PM 51.8 °F - 32.0 °F 47% 29.91 in 15.0 mi NW 16.1 mph - N/A   Partly Cloudy
1:00 PM 51.8 °F - 33.8 °F 50% 29.92 in 15.0 mi NNW 9.2 mph 18.4 mph N/A   Scattered Clouds
2:00 PM 53 °F - 32 °F 33% 29.93 in 15 mi NW 10.4 mph - -   Partly Cloudy
2:00 PM 51.8 °F - 32.0 °F 47% 29.93 in 15.0 mi WNW 8.1 mph 21.9 mph N/A   Scattered Clouds
3:00 PM 53.6 °F - 32.0 °F 44% 29.96 in 15.0 mi NNW 11.5 mph 19.6 mph N/A   Mostly Cloudy
4:00 PM 53.6 °F - 32.0 °F 44% 29.98 in 15.0 mi NW 12.7 mph - N/A   Mostly Cloudy
5:00 PM 53.6 °F - 35.6 °F 51% 30.00 in 15.0 mi NNE 16.1 mph 23.0 mph N/A   Partly Cloudy
6:00 PM 48.2 °F - 37.4 °F 66% 30.02 in 15.0 mi NE 17.3 mph 24.2 mph N/A   Partly Cloudy
7:00 PM 48.2 °F - 33.8 °F 58% 30.04 in 15.0 mi North 13.8 mph - N/A   Partly Cloudy
8:00 PM 43 °F - 37 °F 72% 30.06 in 15 mi ENE 18.4 mph - -   Scattered Clouds
8:00 PM 42.8 °F 34.3 °F 37.4 °F 81% 30.06 in 15.0 mi ENE 19.6 mph - N/A   Scattered Clouds
9:00 PM 41.0 °F 32.8 °F 35.6 °F 81% 30.09 in 15.0 mi NE 16.1 mph - N/A   Partly Cloudy
10:00 PM 39.2 °F 30.5 °F 35.6 °F 87% 30.11 in 15.0 mi NE 16.1 mph - N/A   Partly Cloudy
11:00 PM 39.2 °F 31.2 °F 33.8 °F 81% 30.13 in 15.0 mi NE 13.8 mph - N/A   Clear